Flag for Germany Weather past 2 weeks in Osterholz-Scharmbeck, Lower Saxony, Germany

Now
42 °F

Partly sunny.


Feels Like: 37 °F
Forecast: 38 / 46 °F
Wind: 7 mph from Southwest

Location: Bremen

Current Time: Feb 28, 2015 at 1:53:10 PM

Latest Report: Feb 28, 2015 at 1:00 PM


Visibility: 9 mi

Pressure: 30.06 "Hg

Humidity: 73%

Dew point: 33 °F

Location of Osterholz-ScharmbeckLocation

Historic Weather in Osterholz-Scharmbeck — Graph

°F

Osterholz-Scharmbeck temperature yesterday

Maximum temperature yesterday: 44 °F (at 2:00 PM)
Minimum temperature yesterday: 35 °F (at 9:00 PM)
Average temperature yesterday: 41 °F

Past Weeks' High & Low Weather Summary

 TemperatureHumidityPressure
High51 °F (Feb 14, 4:00 PM)100% (Feb 17, 8:00 AM)30.73 "Hg (Feb 17, 8:00 AM)
Low26 °F (Feb 17, 7:00 AM)61% (Feb 14, 4:00 PM)29.26 "Hg (Feb 21, 7:00 AM)
Average38 °F86%29.94 "Hg
* Reported Feb 13 12:00 Noon — Feb 28 12:00 Noon, Osterholz-Scharmbeck, Weather by CustomWeather, © 2015

Note: Actual official high and low records may vary slightly from our data, if they occured in-between our weather recording intervals... More about our weather records

Advertising

Osterholz-Scharmbeck weather history for previous 24 hours

 ConditionsComfort  
Time TempWeatherWind HumidityBarometerVisibility
12:00 PM
Sat, Feb 28
40 °FPartly sunny.8 mph80%30.06 "Hg9 mi
11:00 AM39 °FScattered clouds.7 mph80%30.08 "Hg7 mi
10:00 AM37 °FScattered clouds.5 mph88%30.10 "Hg6 mi
9:00 AM34 °FScattered clouds.3 mph91%30.11 "Hg6 mi
8:00 AM31 °FChilly.3 mph96%30.11 "HgN/A
7:00 AM32 °FOvercast.3 mph95%30.09 "Hg7 mi
6:00 AM32 °FOvercast.3 mph96%30.09 "Hg7 mi
5:00 AM29 °FFog.2 mph97%30.11 "Hg4 mi
3:00 AM30 °FFog.2 mph100%30.11 "Hg6 mi
2:00 AM32 °FFog.1 mph98%30.11 "Hg6 mi
1:00 AM33 °FPassing clouds.1 mph96%30.09 "Hg19 mi
12:00 AM34 °FPassing clouds.2 mph92%30.10 "Hg19 mi
11:00 PM
Fri, Feb 27
36 °FPassing clouds.3 mph89%30.10 "Hg19 mi
9:00 PM35 °FPassing clouds.3 mph83%30.08 "Hg19 mi
8:00 PM37 °FPassing clouds.5 mph82%30.06 "Hg19 mi
7:00 PM39 °FPassing clouds.5 mph79%30.03 "Hg19 mi
6:00 PM42 °FOvercast.6 mph73%30.01 "Hg16 mi
5:00 PM43 °FOvercast.8 mph71%30.00 "Hg16 mi
3:00 PM43 °FOvercast.9 mph79%29.96 "Hg12 mi
2:00 PM44 °FOvercast.8 mph78%29.93 "Hg12 mi
1:00 PM44 °FOvercast.7 mph84%29.91 "Hg10 mi
Weather by CustomWeather, © 2015

See weather overviewHow to use our weather pages